Location: Grums
(59.3529°N, 13.1129°E)
Time: 18:29:25
(UTC+01:00)

DELFI C3 - Visible Passes

Search period start: 03 December 2021 00:00
Search period end: 13 December 2021 00:00
Orbit: 529 x 543 km, 97.4° (Epoch: 03 December)

Date Brightness Start Highest point End Pass type
(mag) Time Alt. Az. Time Alt. Az. Time Alt. Az.
03 Dec ? 07:46:00 10° NNE 07:49:43 39° E 07:53:25 10° SSE visible
03 Dec ? 17:09:03 14° NNE 17:09:03 14° NNE 17:10:07 10° NNE visible
03 Dec ? 18:44:28 18° N 18:44:28 18° N 18:45:33 10° NNW visible
04 Dec ? 07:37:31 10° NNE 07:41:08 33° E 07:44:42 10° SSE visible
04 Dec ? 17:00:29 12° NNE 17:00:29 12° NNE 17:01:22 10° NNE visible
04 Dec ? 18:35:55 18° N 18:35:55 18° N 18:36:59 10° N visible
05 Dec ? 07:29:04 10° NNE 07:32:32 28° E 07:35:57 10° SSE visible
05 Dec ? 16:51:55 11° NNE 16:51:55 11° NNE 16:52:32 10° NNE visible
05 Dec ? 18:27:21 18° N 18:27:21 18° N 18:28:24 10° N visible
06 Dec ? 07:20:37 10° NE 07:23:54 24° E 07:27:09 10° SSE visible
06 Dec ? 16:43:20 10° NNE 16:43:20 10° NNE 16:43:34 10° NNE visible
06 Dec ? 18:18:45 17° N 18:18:45 17° N 18:19:48 10° N visible
07 Dec ? 07:12:12 10° NE 07:15:15 21° E 07:18:17 10° SE visible
07 Dec ? 18:10:09 17° N 18:10:09 17° N 18:11:12 10° N visible
07 Dec ? 19:45:35 11° NNW 19:45:35 11° NNW 19:45:41 10° NNW visible
08 Dec ? 07:03:50 10° NE 07:06:36 18° E 07:09:21 10° SE visible
08 Dec ? 18:01:33 16° N 18:01:33 16° N 18:02:34 10° N visible
08 Dec ? 19:36:58 11° NNW 19:36:58 11° NNW 19:37:11 10° NNW visible
09 Dec ? 06:55:30 10° NE 06:57:55 16° E 07:00:20 10° SE visible
09 Dec ? 17:52:55 16° N 17:52:55 16° N 17:53:55 10° N visible
09 Dec ? 19:28:21 12° NNW 19:28:21 12° NNW 19:28:39 10° NNW visible
10 Dec ? 06:47:15 10° NE 06:49:14 13° E 06:51:13 10° ESE visible
10 Dec ? 17:44:17 15° N 17:44:17 15° N 17:45:14 10° N visible
10 Dec ? 19:19:43 12° NNW 19:19:43 12° NNW 19:20:06 10° NNW visible
11 Dec ? 06:39:11 10° ENE 06:40:32 11° E 06:41:53 10° ESE visible
11 Dec ? 17:35:39 15° NNE 17:35:39 15° NNE 17:36:33 10° N visible
11 Dec ? 19:11:04 13° NNW 19:11:04 13° NNW 19:11:32 10° NNW visible
12 Dec ? 17:26:59 14° NNE 17:26:59 14° NNE 17:27:50 10° N visible
12 Dec ? 19:02:24 14° NNW 19:02:24 14° NNW 19:02:56 10° NNW visible
